FW6809 Weather Reports


Display with metric or nautical units.
time (UTC)temp
F
wind
direction
speed
MPH
gust
MPH
rain 1hr
in
rain 24hr
in
rain mn
in
humidity
%
barometer
mb
20210924220542 68 0 0.0 0.0 0.00 0.00 0.00 51 1018.6
20210924220124 68 0 0.0 0.0 0.00 0.00 0.00 50 1018.5
20210924215546 69 0 0.0 1.0 0.00 0.00 0.00 49 1018.5
20210924215048 69 0 0.0 1.0 0.00 0.00 0.00 48 1018.5
20210924214603 69 0 0.0 3.0 0.00 0.00 0.00 48 1018.4
20210924214041 69 129 0.0 3.0 0.00 0.00 0.00 47 1018.3
20210924213545 69 124 0.0 2.0 0.00 0.00 0.00 48 1018.4
20210924213125 69 102 0.0 3.0 0.00 0.00 0.00 48 1018.5
20210924212544 69 0 0.0 3.0 0.00 0.00 0.00 48 1018.4
20210924212053 69 109 0.0 3.0 0.00 0.00 0.00 46 1018.4
20210924211617 69 0 0.0 1.0 0.00 0.00 0.00 47 1018.5
20210924211044 69 0 0.0 1.0 0.00 0.00 0.00 45 1018.6
20210924210559 70 0 0.0 1.0 0.00 0.00 0.00 45 1018.5
20210924210113 70 0 0.0 1.0 0.00 0.00 0.00 45 1018.6
20210924205543 70 126 0.0 1.0 0.00 0.00 0.00 45 1018.6
20210924205046 70 129 0.0 1.0 0.00 0.00 0.00 45 1018.6
20210924204620 70 0 0.0 1.0 0.00 0.00 0.00 45 1018.5
20210924204045 70 0 0.0 1.0 0.00 0.00 0.00 44 1018.7
20210924203552 70 0 0.0 1.0 0.00 0.00 0.00 45 1018.6
20210924203206 70 0 0.0 1.0 0.00 0.00 0.00 44 1018.6
20210924202544 70 0 0.0 2.0 0.00 0.00 0.00 44 1018.6
20210924202044 70 0 0.0 2.0 0.00 0.00 0.00 43 1018.7
20210924201621 71 124 0.0 1.0 0.00 0.00 0.00 44 1018.8
20210924201044 71 127 0.0 1.0 0.00 0.00 0.00 45 1018.8
20210924200545 71 0 0.0 1.0 0.00 0.00 0.00 44 1018.8
20210924200110 71 0 0.0 1.0 0.00 0.00 0.00 44 1018.8
20210924195542 71 138 0.0 1.0 0.00 0.00 0.00 43 1018.8
20210924195058 71 0 0.0 1.0 0.00 0.00 0.00 43 1018.9
20210924194605 71 0 0.0 1.0 0.00 0.00 0.00 43 1019.0
20210924194105 71 0 0.0 1.0 0.00 0.00 0.00 43 1019.0
20210924193543 72 0 0.0 1.0 0.00 0.00 0.00 43 1019.1
20210924193127 72 0 0.0 1.0 0.00 0.00 0.00 42 1019.1
20210924192546 72 0 0.0 1.0 0.00 0.00 0.00 41 1019.1
20210924192044 72 126 0.0 2.0 0.00 0.00 0.00 43 1019.1
20210924191618 72 0 0.0 2.0 0.00 0.00 0.00 42 1019.2
20210924191046 72 114 0.0 1.0 0.00 0.00 0.00 42 1019.3
20210924190544 72 0 0.0 1.0 0.00 0.00 0.00 43 1019.2
20210924190107 72 0 0.0 2.0 0.00 0.00 0.00 43 1019.3
20210924185542 72 0 0.0 2.0 0.00 0.00 0.00 41 1019.4
20210924185059 73 0 0.0 1.0 0.00 0.00 0.00 43 1019.4
20210924184644 72 0 0.0 1.0 0.00 0.00 0.00 41 1019.5
20210924184045 72 127 0.0 1.0 0.00 0.00 0.00 41 1019.6
20210924183550 72 0 0.0 1.0 0.00 0.00 0.00 42 1019.6
20210924183111 71 0 0.0 4.0 0.00 0.00 0.00 42 1019.7
20210924182541 71 0 2.0 4.0 0.00 0.00 0.00 41 1019.7
20210924182042 71 116 1.0 4.0 0.00 0.00 0.00 41 1019.7
20210924181636 71 125 3.0 5.0 0.00 0.00 0.00 40 1019.7
20210924181040 71 135 2.0 5.0 0.00 0.00 0.00 41 1019.9
20210924180541 71 110 1.0 4.0 0.00 0.00 0.00 41 1019.9
20210924180151 71 124 1.0 3.0 0.00 0.00 0.00 40 1020.0
20210924175541 71 0 0.0 1.0 0.00 0.00 0.00 41 1019.9
20210924175043 71 0 0.0 2.0 0.00 0.00 0.00 41 1020.0
20210924174640 70 148 1.0 2.0 0.00 0.00 0.00 42 1020.1
20210924174110 71 0 0.0 1.0 0.00 0.00 0.00 43 1020.1
20210924173547 70 0 0.0 1.0 0.00 0.00 0.00 43 1020.2
20210924173101 70 0 0.0 3.0 0.00 0.00 0.00 44 1020.3
20210924172541 69 0 1.0 4.0 0.00 0.00 0.00 43 1020.4
20210924172103 69 116 2.0 4.0 0.00 0.00 0.00 44 1020.5
20210924171615 69 0 0.0 2.0 0.00 0.00 0.00 44 1020.6
20210924171041 69 136 0.0 2.0 0.00 0.00 0.00 45 1020.7
20210924170543 69 131 0.0 1.0 0.00 0.00 0.00 46 1020.7
20210924170104 69 124 0.0 2.0 0.00 0.00 0.00 46 1020.6
20210924165543 69 0 0.0 2.0 0.00 0.00 0.00 46 1020.7
20210924165042 68 0 0.0 2.0 0.00 0.00 0.00 47 1020.6
20210924164620 68 116 0.0 2.0 0.00 0.00 0.00 46 1020.6
20210924164048 68 0 0.0 2.0 0.00 0.00 0.00 47 1020.5
20210924163541 67 122 0.0 3.0 0.00 0.00 0.00 47 1020.6
20210924163114 67 115 1.0 3.0 0.00 0.00 0.00 47 1020.7
20210924162542 67 133 0.0 3.0 0.00 0.00 0.00 47 1020.7
20210924162041 66 0 0.0 3.0 0.00 0.00 0.00 47 1020.8
20210924161658 66 0 1.0 2.0 0.00 0.00 0.00 47 1020.8
20210924161046 66 0 0.0 1.0 0.00 0.00 0.00 47 1020.7
20210924160543 66 120 0.0 1.0 0.00 0.00 0.00 47 1020.7
20210924160114 66 0 0.0 1.0 0.00 0.00 0.00 47 1020.9
20210924155545 65 0 0.0 0.0 0.00 0.00 0.00 47 1020.9
20210924155043 65 0 0.0 2.0 0.00 0.00 0.00 47 1020.8
20210924154611 64 0 0.0 2.0 0.00 0.00 0.00 47 1020.9
20210924154042 65 0 0.0 1.0 0.00 0.00 0.00 47 1020.9
20210924153546 65 0 0.0 2.0 0.00 0.00 0.00 48 1020.9
20210924153046 64 0 0.0 2.0 0.00 0.00 0.00 48 1021.0
20210924152606 64 0 0.0 1.0 0.00 0.00 0.00 50 1021.0
20210924152043 63 0 0.0 2.0 0.00 0.00 0.00 51 1021.1
20210924151607 62 120 0.0 2.0 0.00 0.00 0.00 51 1021.1
20210924151042 62 0 0.0 1.0 0.00 0.00 0.00 55 1021.1
20210924150544 62 0 0.0 1.0 0.00 0.00 0.00 56 1021.2
20210924150113 61 0 0.0 1.0 0.00 0.00 0.00 57 1021.2
20210924145541 61 0 0.0 1.0 0.00 0.00 0.00 57 1021.3
20210924145046 60 125 0.0 1.0 0.00 0.00 0.00 57 1021.3
20210924144627 59 125 0.0 1.0 0.00 0.00 0.00 57 1021.3
20210924144045 58 0 0.0 1.0 0.00 0.00 0.00 58 1021.2
20210924143611 58 0 0.0 1.0 0.00 0.00 0.00 58 1021.2
20210924143155 57 125 0.0 1.0 0.00 0.00 0.00 58 1021.3
20210924142541 56 0 0.0 0.0 0.00 0.00 0.00 58 1021.3
20210924142048 56 0 0.0 0.0 0.00 0.00 0.00 58 1021.2
20210924141647 55 0 0.0 0.0 0.00 0.00 0.00 58 1021.2
20210924141049 54 0 0.0 0.0 0.00 0.00 0.00 58 1021.2
20210924140543 54 0 0.0 0.0 0.00 0.00 0.00 58 1021.1
20210924140127 53 0 0.0 0.0 0.00 0.00 0.00 58 1021.0
20210924135542 52 0 0.0 0.0 0.00 0.00 0.00 58 1020.9
20210924135043 52 0 0.0 1.0 0.00 0.00 0.00 58 1020.9
20210924134623 51 0 0.0 1.0 0.00 0.00 0.00 58 1020.9
20210924134056 50 0 0.0 0.0 0.00 0.00 0.00 58 1020.9
20210924133543 49 0 0.0 0.0 0.00 0.00 0.00 58 1020.9
20210924133120 49 0 0.0 0.0 0.00 0.00 0.00 58 1020.8
20210924132543 48 0 0.0 0.0 0.00 0.00 0.00 58 1020.8
20210924132042 47 0 0.0 0.0 0.00 0.00 0.00 58 1020.8
20210924131601 47 0 0.0 0.0 0.00 0.00 0.00 58 1020.8
20210924131041 46 0 0.0 0.0 0.00 0.00 0.00 58 1020.9
20210924130541 45 0 0.0 0.0 0.00 0.00 0.00 58 1020.8
20210924130132 45 0 0.0 0.0 0.00 0.00 0.00 58 1020.6
20210924125543 45 0 0.0 0.0 0.00 0.00 0.00 58 1020.6
20210924125040 44 0 0.0 0.0 0.00 0.00 0.00 58 1020.6
20210924124631 44 0 0.0 0.0 0.00 0.00 0.00 58 1020.5
20210924124042 44 0 0.0 0.0 0.00 0.00 0.00 57 1020.5
20210924123543 43 0 0.0 0.0 0.00 0.00 0.00 57 1020.4
20210924123100 43 0 0.0 0.0 0.00 0.00 0.00 57 1020.4
20210924122546 42 0 0.0 0.0 0.00 0.00 0.00 57 1020.3
20210924122042 42 0 0.0 0.0 0.00 0.00 0.00 57 1020.3
20210924121614 42 0 0.0 0.0 0.00 0.00 0.00 57 1020.4
20210924121042 42 0 0.0 0.0 0.00 0.00 0.00 57 1020.3
20210924120602 41 0 0.0 0.0 0.00 0.00 0.00 57 1020.2
20210924120206 41 0 0.0 0.0 0.00 0.00 0.00 57 1020.2
20210924115541 41 0 0.0 0.0 0.00 0.00 0.00 57 1020.2
20210924115048 41 0 0.0 0.0 0.00 0.00 0.00 57 1020.0
20210924114646 41 0 0.0 0.0 0.00 0.00 0.00 57 1019.9
20210924114046 41 0 0.0 0.0 0.00 0.00 0.00 57 1019.8
20210924113559 41 0 0.0 0.0 0.00 0.00 0.00 57 1019.8
20210924113144 41 0 0.0 0.0 0.00 0.00 0.00 57 1019.8
20210924112541 41 0 0.0 0.0 0.00 0.00 0.00 57 1019.7
20210924112043 41 0 0.0 0.0 0.00 0.00 0.00 57 1019.7
20210924111555 41 0 0.0 0.0 0.00 0.00 0.00 57 1019.7
20210924111043 41 0 0.0 0.0 0.00 0.00 0.00 57 1019.7
20210924110543 41 0 0.0 0.0 0.00 0.00 0.00 57 1019.7
20210924110119 41 0 0.0 0.0 0.00 0.00 0.00 56 1019.6
20210924105543 41 0 0.0 0.0 0.00 0.00 0.00 56 1019.5
20210924105046 41 0 0.0 0.0 0.00 0.00 0.00 56 1019.6
20210924104635 41 0 0.0 0.0 0.00 0.00 0.00 56 1019.5
20210924104050 41 0 0.0 0.0 0.00 0.00 0.00 56 1019.5
20210924103545 41 0 0.0 0.0 0.00 0.00 0.00 56 1019.4
20210924103208 41 0 0.0 0.0 0.00 0.00 0.00 56 1019.4
20210924102547 42 0 0.0 0.0 0.00 0.00 0.00 56 1019.3
20210924102044 42 0 0.0 0.0 0.00 0.00 0.00 56 1019.3
20210924101617 42 0 0.0 0.0 0.00 0.00 0.00 56 1019.3
20210924101045 42 0 0.0 0.0 0.00 0.00 0.00 56 1019.3
20210924100555 42 0 0.0 0.0 0.00 0.00 0.00 56 1019.3
20210924100056 42 0 0.0 0.0 0.00 0.00 0.00 56 1019.3
20210924095540 42 0 0.0 0.0 0.00 0.00 0.00 56 1019.2
20210924095041 42 0 0.0 0.0 0.00 0.00 0.00 56 1019.3
20210924094627 42 0 0.0 0.0 0.00 0.00 0.00 56 1019.3
20210924094107 42 0 0.0 0.0 0.00 0.00 0.00 56 1019.2
20210924093542 42 0 0.0 0.0 0.00 0.00 0.00 56 1019.1
20210924093133 42 0 0.0 0.0 0.00 0.00 0.00 56 1019.1
20210924084042 43 0 0.0 0.0 0.00 0.00 0.00 55 1018.7
20210924083543 43 0 0.0 0.0 0.00 0.00 0.00 55 1018.7
20210924083102 43 0 0.0 0.0 0.00 0.00 0.00 55 1018.8
20210924082556 43 0 0.0 0.0 0.00 0.00 0.00 55 1018.7
20210924082101 43 0 0.0 0.0 0.00 0.00 0.00 55 1018.8
20210924081628 43 0 0.0 0.0 0.00 0.00 0.00 55 1018.7
20210924081055 43 0 0.0 0.0 0.00 0.00 0.00 55 1018.6
20210924080542 43 0 0.0 0.0 0.00 0.00 0.00 55 1018.5
20210924080109 43 0 0.0 0.0 0.00 0.00 0.00 55 1018.4
20210924075544 43 0 0.0 0.0 0.00 0.00 0.00 55 1018.3
20210924075044 43 0 0.0 0.0 0.00 0.00 0.00 55 1018.4
20210924074612 44 0 0.0 0.0 0.00 0.00 0.00 55 1018.5
20210924074042 44 0 0.0 0.0 0.00 0.00 0.00 55 1018.4
20210924073541 44 0 0.0 0.0 0.00 0.00 0.00 55 1018.3
20210924073105 44 0 0.0 0.0 0.00 0.00 0.00 54 1018.3
20210924072555 44 0 0.0 0.0 0.00 0.00 0.00 54 1018.4
20210924072045 44 0 0.0 0.0 0.00 0.00 0.00 54 1018.4
20210924071652 44 0 0.0 0.0 0.00 0.00 0.00 54 1018.4
20210924071041 44 0 0.0 0.0 0.00 0.00 0.00 54 1018.5
20210924070543 44 0 0.0 0.0 0.00 0.00 0.00 54 1018.5
20210924070121 44 0 0.0 0.0 0.00 0.00 0.00 54 1018.6
20210924065543 44 0 0.0 0.0 0.00 0.00 0.00 54 1018.7
20210924065041 44 0 0.0 0.0 0.00 0.00 0.00 54 1018.7
20210924064632 44 0 0.0 0.0 0.00 0.00 0.00 54 1018.9
20210924064041 44 0 0.0 0.0 0.00 0.00 0.00 54 1018.9
20210924063541 44 0 0.0 0.0 0.00 0.00 0.00 54 1019.0
20210924063127 44 0 0.0 0.0 0.00 0.00 0.00 54 1019.0
20210924062547 44 0 0.0 0.0 0.00 0.00 0.00 54 1019.2
20210924062041 45 0 0.0 0.0 0.00 0.00 0.00 54 1019.1
20210924061613 45 0 0.0 0.0 0.00 0.00 0.00 54 1019.1
20210924061042 45 0 0.0 0.0 0.00 0.00 0.00 54 1019.1
20210924060542 45 0 0.0 0.0 0.00 0.00 0.00 54 1019.0
20210924060119 45 0 0.0 0.0 0.00 0.00 0.00 54 1019.0
20210924055608 45 0 0.0 0.0 0.00 0.00 0.00 54 1019.0
20210924055049 45 0 0.0 0.0 0.00 0.00 0.00 54 1019.0
20210924054630 45 0 0.0 0.0 0.00 0.00 0.00 54 1019.0
20210924054109 45 0 0.0 0.0 0.00 0.00 0.00 54 1019.0
20210924053543 45 0 0.0 0.0 0.00 0.00 0.00 54 1019.1
20210924053103 45 0 0.0 0.0 0.00 0.00 0.00 54 1019.0
20210924052543 45 0 0.0 0.0 0.00 0.00 0.00 54 1018.9
20210924052043 45 0 0.0 0.0 0.00 0.00 0.00 54 1019.0
20210924051651 45 0 0.0 0.0 0.00 0.00 0.00 54 1018.9
20210924051044 46 0 0.0 0.0 0.00 0.00 0.00 54 1019.0
20210924050605 46 0 0.0 0.0 0.00 0.00 0.00 54 1019.0
20210924050135 46 0 0.0 0.0 0.00 0.00 0.00 54 1019.0
20210924045542 46 0 0.0 0.0 0.00 0.00 0.00 54 1018.9
20210924045042 46 0 0.0 0.0 0.00 0.00 0.00 54 1019.1
20210924044657 46 0 0.0 0.0 0.00 0.00 0.00 54 1019.1
20210924044057 46 0 0.0 0.0 0.00 0.00 0.00 54 1019.2
20210924043543 46 0 0.0 0.0 0.00 0.00 0.00 54 1019.2
20210924043156 46 0 0.0 0.0 0.00 0.00 0.00 54 1019.4
20210924042544 47 0 0.0 0.0 0.00 0.00 0.00 54 1019.4
20210924042052 47 0 0.0 0.0 0.00 0.00 0.00 54 1019.3
20210924041806 47 0 0.0 0.0 0.00 0.00 0.00 54 1019.3
20210924041044 47 0 0.0 0.0 0.00 0.00 0.00 54 1019.4
20210924040631 47 0 0.0 0.0 0.00 0.00 0.00 54 1019.3
20210924040125 47 0 0.0 0.0 0.00 0.00 0.00 54 1019.3
20210924035543 47 0 0.0 0.0 0.00 0.00 0.00 54 1019.2
20210924035044 47 0 0.0 0.0 0.00 0.00 0.00 54 1019.2
20210924034637 48 0 0.0 0.0 0.00 0.00 0.00 54 1019.3
20210924034045 48 0 0.0 0.0 0.00 0.00 0.00 54 1019.2
20210924033557 48 0 0.0 1.0 0.00 0.00 0.00 54 1019.2
20210924033117 48 0 0.0 1.0 0.00 0.00 0.00 54 1019.1
20210924032604 48 0 0.0 0.0 0.00 0.00 0.00 54 1019.1
20210924032045 48 0 0.0 0.0 0.00 0.00 0.00 54 1019.1
20210924031706 48 0 0.0 0.0 0.00 0.00 0.00 54 1019.0
20210924031055 48 0 0.0 0.0 0.00 0.00 0.00 54 1019.0
20210924030550 48 0 0.0 0.0 0.00 0.00 0.00 54 1019.0
20210924030214 48 0 0.0 0.0 0.00 0.00 0.00 55 1019.0
20210924025545 48 0 0.0 0.0 0.00 0.00 0.00 55 1018.9
20210924025042 48 0 0.0 0.0 0.00 0.00 0.00 55 1018.8
20210924024619 48 0 0.0 1.0 0.00 0.00 0.00 55 1018.9
20210924024054 48 0 0.0 1.0 0.00 0.00 0.00 55 1018.8
20210924023550 48 0 0.0 0.0 0.00 0.00 0.00 55 1018.8
20210924023152 48 0 0.0 0.0 0.00 0.00 0.00 55 1018.9
20210924022549 49 0 0.0 0.0 0.00 0.00 0.00 55 1018.8
20210924022104 49 0 0.0 0.0 0.00 0.00 0.00 55 1018.8
20210924021649 49 0 0.0 0.0 0.00 0.00 0.00 55 1018.7
20210924021050 49 0 0.0 0.0 0.00 0.00 0.00 55 1018.7
20210924020544 49 0 0.0 0.0 0.00 0.00 0.00 55 1018.6
20210924020213 49 0 0.0 0.0 0.00 0.00 0.00 55 1018.6
20210924015604 50 0 0.0 0.0 0.00 0.00 0.00 55 1018.6
20210924015108 50 0 0.0 0.0 0.00 0.00 0.00 55 1018.5
20210924014616 50 0 0.0 0.0 0.00 0.00 0.00 55 1018.6
20210924014058 50 0 0.0 0.0 0.00 0.00 0.00 55 1018.6
20210924013544 50 0 0.0 0.0 0.00 0.00 0.00 56 1018.5
20210924013135 50 0 0.0 0.0 0.00 0.00 0.00 56 1018.5
20210924012541 51 0 0.0 0.0 0.00 0.00 0.00 56 1018.4
20210924012041 51 0 0.0 0.0 0.00 0.00 0.00 56 1018.3
20210924011610 51 0 0.0 0.0 0.00 0.00 0.00 56 1018.3
20210924011042 51 0 0.0 0.0 0.00 0.00 0.00 56 1018.1
20210924010547 51 0 0.0 0.0 0.00 0.00 0.00 56 1018.1
20210924010054 52 0 0.0 0.0 0.00 0.00 0.00 56 1018.1
20210924005545 52 0 0.0 0.0 0.00 0.00 0.00 56 1018.1
20210924005041 52 0 0.0 0.0 0.00 0.00 0.00 56 1017.8
20210924004618 52 0 0.0 0.0 0.00 0.00 0.00 56 1017.7
20210924004043 52 0 0.0 0.0 0.00 0.00 0.00 56 1017.7
20210924003543 53 0 0.0 0.0 0.00 0.00 0.00 56 1017.6
20210924003124 53 0 0.0 0.0 0.00 0.00 0.00 56 1017.5
20210924002541 53 0 0.0 0.0 0.00 0.00 0.00 56 1017.5
20210924002052 54 0 0.0 0.0 0.00 0.00 0.00 56 1017.4
20210924001606 54 0 0.0 0.0 0.00 0.00 0.00 56 1017.4
20210924001101 54 0 0.0 0.0 0.00 0.00 0.00 56 1017.5
20210924000601 54 0 0.0 0.0 0.00 0.00 0.00 56 1017.4
20210924000145 55 0 0.0 0.0 0.00 0.00 0.00 56 1017.4
20210923235612 55 0 0.0 0.0 0.00 0.00 0.00 56 1017.4
20210923235045 55 0 0.0 0.0 0.00 0.00 0.00 56 1017.3
20210923234601 56 0 0.0 0.0 0.00 0.00 0.00 56 1017.3
20210923234044 56 0 0.0 0.0 0.00 0.00 0.00 55 1017.3
20210923233543 57 0 0.0 0.0 0.00 0.00 0.00 55 1017.3
20210923233118 57 0 0.0 0.0 0.00 0.00 0.00 55 1017.3
20210923232553 58 0 0.0 0.0 0.00 0.00 0.00 55 1017.1
20210923232045 58 0 0.0 0.0 0.00 0.00 0.00 54 1017.0
20210923231623 58 0 0.0 0.0 0.00 0.00 0.00 54 1017.0
20210923231041 59 0 0.0 0.0 0.00 0.00 0.00 54 1016.9
20210923230546 59 0 0.0 0.0 0.00 0.00 0.00 53 1016.9
20210923230157 60 0 0.0 0.0 0.00 0.00 0.00 52 1016.9
20210923225540 60 0 0.0 0.0 0.00 0.00 0.00 52 1016.8
20210923225042 60 0 0.0 0.0 0.00 0.00 0.00 51 1016.8
20210923224629 61 0 0.0 0.0 0.00 0.00 0.00 51 1016.8
20210923224043 61 0 0.0 1.0 0.00 0.00 0.00 51 1016.8
20210923223550 62 0 0.0 1.0 0.00 0.00 0.00 50 1016.8
20210923223203 62 0 0.0 0.0 0.00 0.00 0.00 50 1016.8
20210923222546 62 0 0.0 2.0 0.00 0.00 0.00 49 1016.7
20210923222101 63 0 0.0 4.0 0.00 0.00 0.00 48 1016.8
20210923221643 63 0 0.0 4.0 0.00 0.00 0.00 47 1016.8
20210923221042 63 0 0.0 3.0 0.00 0.00 0.00 48 1016.8